| time (UTC) | temp F | wind direction | speed MPH | gust MPH | rain 1hr in | rain 24hr in | rain mn in | humidity % | barometer mb |
| 20260506090834 | 58 | 158 | 2.0 | 4.0 | 0.00 | 0.00 | 0.00 | 83 | 1018.5 |
| 20260506090354 | 58 | 124 | 0.0 | 4.0 | 0.00 | 0.00 | 0.00 | 83 | 1018.5 |
| 20260506085844 | 58 | 134 | 1.0 | 3.0 | 0.00 | 0.00 | 0.00 | 83 | 1018.5 |
| 20260506085337 | 59 | 102 | 1.0 | 3.0 | 0.00 | 0.00 | 0.00 | 83 | 1018.6 |
| 20260506084849 | 59 | 126 | 0.0 | 2.0 | 0.00 | 0.00 | 0.00 | 83 | 1018.5 |
| 20260506084343 | 59 | 150 | 0.0 | 1.0 | 0.00 | 0.00 | 0.00 | 83 | 1018.5 |
| 20260506083837 | 59 | 120 | 0.0 | 1.0 | 0.00 | 0.00 | 0.00 | 83 | 1018.5 |
| 20260506083349 | 59 | 126 | 0.0 | 3.0 | 0.00 | 0.00 | 0.00 | 83 | 1018.5 |
| 20260506082838 | 59 | 126 | 1.0 | 3.0 | 0.00 | 0.00 | 0.00 | 83 | 1018.5 |
| 20260506082332 | 59 | 143 | 0.0 | 3.0 | 0.00 | 0.00 | 0.00 | 82 | 1018.6 |
| 20260506081844 | 59 | 116 | 0.0 | 3.0 | 0.00 | 0.00 | 0.00 | 82 | 1018.5 |
| 20260506081338 | 59 | 145 | 0.0 | 2.0 | 0.00 | 0.00 | 0.00 | 82 | 1018.5 |
| 20260506080832 | 59 | 139 | 0.0 | 2.0 | 0.00 | 0.00 | 0.00 | 82 | 1018.5 |
| 20260506080354 | 59 | 96 | 0.0 | 0.0 | 0.00 | 0.00 | 0.00 | 83 | 1018.4 |
| 20260506073346 | 59 | 154 | 0.0 | 1.0 | 0.00 | 0.03 | 0.00 | 83 | 1018.3 |
| 20260506072837 | 59 | 173 | 0.0 | 0.0 | 0.00 | 0.03 | 0.00 | 82 | 1018.2 |
| 20260506072411 | 59 | 122 | 0.0 | 0.0 | 0.00 | 0.03 | 0.00 | 83 | 1018.2 |
| 20260506071839 | 59 | 130 | 0.0 | 1.0 | 0.00 | 0.03 | 0.00 | 83 | 1018.1 |
| 20260506071333 | 59 | 197 | 0.0 | 1.0 | 0.00 | 0.03 | 0.00 | 82 | 1018.0 |
| 20260506070906 | 59 | 138 | 0.0 | 0.0 | 0.00 | 0.03 | 0.00 | 82 | 1018.0 |
| 20260506070345 | 59 | 137 | 0.0 | 0.0 | 0.00 | 0.03 | 0.00 | 82 | 1018.1 |
| 20260506062342 | 60 | 230 | 0.0 | 2.0 | 0.00 | 0.08 | 0.03 | 81 | 1017.6 |
| 20260506061834 | 60 | 210 | 0.0 | 2.0 | 0.00 | 0.08 | 0.03 | 81 | 1017.5 |
| 20260506061346 | 60 | 158 | 0.0 | 2.0 | 0.00 | 0.08 | 0.03 | 81 | 1017.5 |
| 20260506060839 | 60 | 275 | 0.0 | 3.0 | 0.00 | 0.08 | 0.03 | 81 | 1017.5 |
| 20260506060402 | 60 | 221 | 0.0 | 3.0 | 0.00 | 0.08 | 0.03 | 81 | 1017.5 |
| 20260506051343 | 61 | 238 | 2.0 | 8.0 | 0.00 | 0.20 | 0.03 | 80 | 1017.0 |
| 20260506050837 | 61 | 269 | 0.0 | 3.0 | 0.00 | 0.20 | 0.03 | 80 | 1017.0 |
| 20260506050336 | 61 | 272 | 0.0 | 6.0 | 0.00 | 0.20 | 0.03 | 79 | 1016.9 |
| 20260506044852 | 61 | 210 | 2.0 | 4.0 | 0.00 | 0.33 | 0.03 | 79 | 1016.8 |
| 20260506044346 | 61 | 214 | 1.0 | 6.0 | 0.00 | 0.33 | 0.03 | 79 | 1016.8 |
| 20260506043859 | 62 | 181 | 2.0 | 5.0 | 0.00 | 0.33 | 0.03 | 79 | 1016.7 |
| 20260506043349 | 62 | 283 | 2.0 | 5.0 | 0.00 | 0.33 | 0.03 | 80 | 1016.6 |
| 20260506042840 | 62 | 126 | 0.0 | 1.0 | 0.00 | 0.33 | 0.03 | 80 | 1016.5 |
| 20260506042333 | 62 | 113 | 0.0 | 1.0 | 0.00 | 0.33 | 0.03 | 80 | 1016.4 |
| 20260506041845 | 62 | 164 | 0.0 | 3.0 | 0.00 | 0.33 | 0.03 | 80 | 1016.2 |
| 20260506041339 | 62 | 141 | 0.0 | 3.0 | 0.00 | 0.33 | 0.03 | 80 | 1016.2 |
| 20260506040852 | 62 | 96 | 1.0 | 4.0 | 0.00 | 0.33 | 0.03 | 79 | 1016.1 |
| 20260506040352 | 62 | 119 | 1.0 | 4.0 | 0.00 | 0.33 | 0.03 | 79 | 1016.1 |
| 20260506035842 | 62 | 122 | 0.0 | 4.0 | 0.00 | 0.60 | 0.03 | 79 | 1016.0 |
| 20260506035334 | 62 | 124 | 2.0 | 4.0 | 0.00 | 0.60 | 0.03 | 79 | 1016.1 |
| 20260506034846 | 62 | 152 | 1.0 | 3.0 | 0.00 | 0.60 | 0.03 | 79 | 1016.1 |
| 20260506034400 | 63 | 134 | 1.0 | 4.0 | 0.00 | 0.60 | 0.03 | 78 | 1016.1 |
| 20260506033833 | 63 | 78 | 1.0 | 4.0 | 0.00 | 0.60 | 0.03 | 78 | 1016.0 |
| 20260506033345 | 63 | 93 | 2.0 | 3.0 | 0.00 | 0.60 | 0.03 | 78 | 1016.0 |
| 20260506032834 | 63 | 129 | 0.0 | 3.0 | 0.00 | 0.60 | 0.03 | 78 | 1016.0 |
| 20260506032347 | 63 | 132 | 0.0 | 4.0 | 0.00 | 0.60 | 0.03 | 77 | 1015.9 |
| 20260506031859 | 63 | 148 | 2.0 | 4.0 | 0.00 | 0.60 | 0.03 | 77 | 1015.8 |
| 20260506031412 | 63 | 120 | 0.0 | 3.0 | 0.00 | 0.60 | 0.03 | 77 | 1015.6 |
| 20260506030845 | 63 | 108 | 0.0 | 4.0 | 0.00 | 0.60 | 0.03 | 77 | 1015.6 |
| 20260506030336 | 63 | 135 | 1.0 | 4.0 | 0.00 | 0.60 | 0.03 | 76 | 1015.5 |
| 20260506025847 | 63 | 194 | 1.0 | 4.0 | 0.00 | 0.70 | 0.03 | 76 | 1015.5 |
| 20260506025335 | 63 | 103 | 2.0 | 4.0 | 0.00 | 0.70 | 0.03 | 75 | 1015.3 |
| 20260506024847 | 63 | 163 | 2.0 | 4.0 | 0.00 | 0.70 | 0.03 | 75 | 1015.3 |
| 20260506024340 | 63 | 154 | 0.0 | 4.0 | 0.00 | 0.70 | 0.03 | 75 | 1015.3 |
| 20260506023834 | 63 | 125 | 1.0 | 5.0 | 0.00 | 0.70 | 0.03 | 75 | 1015.3 |
| 20260506023347 | 63 | 80 | 2.0 | 7.0 | 0.00 | 0.70 | 0.03 | 75 | 1015.2 |
| 20260506022837 | 63 | 176 | 3.0 | 7.0 | 0.00 | 0.70 | 0.03 | 75 | 1015.1 |
| 20260506022350 | 63 | 137 | 2.0 | 4.0 | 0.00 | 0.70 | 0.03 | 75 | 1015.0 |
| 20260506021900 | 63 | 159 | 1.0 | 6.0 | 0.00 | 0.70 | 0.03 | 75 | 1015.0 |
| 20260506021412 | 64 | 104 | 2.0 | 8.0 | 0.00 | 0.70 | 0.03 | 75 | 1014.9 |
| 20260506020844 | 64 | 144 | 4.0 | 8.0 | 0.00 | 0.70 | 0.03 | 75 | 1014.9 |
| 20260506020346 | 64 | 135 | 2.0 | 7.0 | 0.00 | 0.70 | 0.03 | 74 | 1014.9 |
| 20260506015857 | 64 | 129 | 1.0 | 6.0 | 0.00 | 0.79 | 0.03 | 74 | 1015.0 |
| 20260506015349 | 64 | 130 | 2.0 | 8.0 | 0.00 | 0.79 | 0.03 | 74 | 1014.9 |
| 20260506014841 | 64 | 102 | 2.0 | 8.0 | 0.00 | 0.79 | 0.03 | 73 | 1014.9 |
| 20260506014332 | 64 | 66 | 3.0 | 7.0 | 0.00 | 0.79 | 0.03 | 73 | 1014.9 |
| 20260506013845 | 64 | 97 | 3.0 | 6.0 | 0.00 | 0.79 | 0.03 | 72 | 1014.9 |
| 20260506012832 | 64 | 106 | 2.0 | 5.0 | 0.00 | 0.79 | 0.03 | 73 | 1014.7 |
| 20260506012346 | 64 | 94 | 2.0 | 6.0 | 0.00 | 0.79 | 0.03 | 73 | 1014.7 |
| 20260506011838 | 65 | 117 | 3.0 | 6.0 | 0.00 | 0.79 | 0.03 | 72 | 1014.8 |
| 20260506011350 | 65 | 96 | 2.0 | 4.0 | 0.00 | 0.79 | 0.03 | 71 | 1014.9 |
| 20260506010843 | 65 | 79 | 2.0 | 6.0 | 0.00 | 0.79 | 0.03 | 72 | 1014.8 |
| 20260506010344 | 65 | 146 | 2.0 | 7.0 | 0.00 | 0.79 | 0.03 | 72 | 1014.7 |
| 20260506005834 | 65 | 73 | 3.0 | 7.0 | 0.00 | 0.84 | 0.03 | 72 | 1014.8 |
| 20260506005347 | 65 | 190 | 3.0 | 7.0 | 0.00 | 0.84 | 0.03 | 71 | 1014.7 |
| 20260506004839 | 65 | 110 | 3.0 | 5.0 | 0.00 | 0.84 | 0.03 | 71 | 1014.6 |
| 20260506004333 | 65 | 139 | 2.0 | 5.0 | 0.00 | 0.84 | 0.03 | 71 | 1014.6 |
| 20260506003905 | 65 | 103 | 2.0 | 6.0 | 0.00 | 0.84 | 0.03 | 71 | 1014.5 |
| 20260506003336 | 65 | 131 | 3.0 | 6.0 | 0.00 | 0.84 | 0.03 | 70 | 1014.5 |
| 20260506002847 | 65 | 89 | 2.0 | 7.0 | 0.00 | 0.84 | 0.03 | 71 | 1014.4 |
| 20260506002341 | 65 | 108 | 3.0 | 7.0 | 0.00 | 0.84 | 0.03 | 70 | 1014.5 |
| 20260506001912 | 65 | 93 | 2.0 | 4.0 | 0.00 | 0.84 | 0.03 | 71 | 1014.5 |
| 20260506001405 | 65 | 142 | 1.0 | 8.0 | 0.00 | 0.84 | 0.03 | 71 | 1014.5 |
| 20260506000838 | 65 | 76 | 5.0 | 8.0 | 0.00 | 0.84 | 0.03 | 70 | 1014.5 |
| 20260506000337 | 65 | 99 | 2.0 | 8.0 | 0.00 | 0.84 | 0.03 | 70 | 1014.5 |
| 20260505235848 | 66 | 79 | 2.0 | 6.0 | 0.00 | 0.94 | 0.03 | 69 | 1014.4 |
| 20260505235342 | 66 | 151 | 1.0 | 3.0 | 0.00 | 0.94 | 0.03 | 68 | 1014.4 |
| 20260505234853 | 66 | 148 | 1.0 | 3.0 | 0.00 | 0.94 | 0.03 | 68 | 1014.4 |
| 20260505234347 | 66 | 210 | 1.0 | 3.0 | 0.00 | 0.94 | 0.03 | 68 | 1014.4 |
| 20260505233840 | 66 | 200 | 1.0 | 5.0 | 0.00 | 0.94 | 0.03 | 68 | 1014.4 |
| 20260505233353 | 66 | 135 | 3.0 | 5.0 | 0.00 | 0.94 | 0.03 | 67 | 1014.4 |
| 20260505232842 | 66 | 124 | 2.0 | 5.0 | 0.00 | 0.94 | 0.03 | 67 | 1014.4 |
| 20260505232335 | 66 | 188 | 1.0 | 5.0 | 0.00 | 0.94 | 0.03 | 68 | 1014.3 |
| 20260505231847 | 66 | 70 | 3.0 | 6.0 | 0.00 | 0.94 | 0.03 | 67 | 1014.4 |
| 20260505231341 | 66 | 173 | 1.0 | 6.0 | 0.00 | 0.94 | 0.03 | 68 | 1014.4 |
| 20260505230838 | 66 | 122 | 2.0 | 4.0 | 0.00 | 0.94 | 0.03 | 66 | 1014.4 |
| 20260505230345 | 66 | 349 | 0.0 | 2.0 | 0.00 | 0.94 | 0.03 | 66 | 1014.5 |
| 20260505225833 | 67 | 213 | 0.0 | 2.0 | 0.00 | 1.02 | 0.03 | 64 | 1014.5 |
| 20260505225347 | 67 | 211 | 1.0 | 3.0 | 0.00 | 1.02 | 0.03 | 66 | 1014.4 |
| 20260505224839 | 66 | 134 | 1.0 | 3.0 | 0.00 | 1.02 | 0.03 | 66 | 1014.4 |
| 20260505224336 | 66 | 160 | 1.0 | 4.0 | 0.00 | 1.02 | 0.03 | 67 | 1014.5 |
| 20260505223850 | 66 | 170 | 2.0 | 5.0 | 0.00 | 1.02 | 0.03 | 66 | 1014.4 |
| 20260505223343 | 66 | 84 | 1.0 | 5.0 | 0.00 | 1.02 | 0.03 | 67 | 1014.5 |
| 20260505222853 | 66 | 107 | 1.0 | 3.0 | 0.00 | 1.02 | 0.03 | 67 | 1014.6 |
| 20260505222343 | 66 | 108 | 1.0 | 3.0 | 0.00 | 1.02 | 0.03 | 67 | 1014.7 |
| 20260505221835 | 66 | 70 | 0.0 | 1.0 | 0.00 | 1.02 | 0.03 | 67 | 1014.7 |
| 20260505221405 | 66 | 101 | 0.0 | 2.0 | 0.00 | 1.02 | 0.03 | 68 | 1014.8 |
| 20260505220858 | 65 | 52 | 1.0 | 2.0 | 0.00 | 1.02 | 0.03 | 68 | 1014.8 |
| 20260505220359 | 65 | 82 | 1.0 | 4.0 | 0.00 | 1.02 | 0.03 | 68 | 1014.8 |
| 20260505215849 | 65 | 98 | 1.0 | 4.0 | 0.00 | 1.04 | 0.03 | 68 | 1014.8 |
| 20260505215343 | 65 | 105 | 1.0 | 4.0 | 0.00 | 1.04 | 0.03 | 69 | 1014.9 |
| 20260505214833 | 66 | 105 | 1.0 | 4.0 | 0.00 | 1.04 | 0.03 | 68 | 1015.0 |
| 20260505214346 | 66 | 141 | 2.0 | 8.0 | 0.00 | 1.04 | 0.03 | 69 | 1015.1 |
| 20260505213840 | 66 | 115 | 3.0 | 8.0 | 0.00 | 1.04 | 0.03 | 69 | 1015.1 |
| 20260505213353 | 66 | 199 | 1.0 | 7.0 | 0.00 | 1.04 | 0.03 | 67 | 1015.1 |
| 20260505212904 | 65 | 144 | 1.0 | 6.0 | 0.00 | 1.04 | 0.03 | 70 | 1015.1 |
| 20260505212336 | 65 | 203 | 2.0 | 8.0 | 0.00 | 1.04 | 0.03 | 69 | 1015.1 |
| 20260505211846 | 65 | 146 | 1.0 | 8.0 | 0.00 | 1.04 | 0.03 | 68 | 1015.1 |
| 20260505211400 | 66 | 272 | 2.0 | 5.0 | 0.00 | 1.04 | 0.03 | 69 | 1015.1 |
| 20260505210832 | 65 | 117 | 1.0 | 5.0 | 0.00 | 1.04 | 0.03 | 70 | 1015.1 |
| 20260505210354 | 65 | 153 | 2.0 | 5.0 | 0.00 | 1.04 | 0.03 | 71 | 1015.1 |
| 20260505205846 | 64 | 115 | 0.0 | 3.0 | 0.00 | 1.05 | 0.03 | 73 | 1015.1 |
| 20260505205338 | 64 | 155 | 0.0 | 2.0 | 0.00 | 1.05 | 0.03 | 73 | 1015.2 |
| 20260505204910 | 63 | 129 | 0.0 | 3.0 | 0.00 | 1.05 | 0.03 | 74 | 1015.1 |
| 20260505204341 | 63 | 302 | 2.0 | 3.0 | 0.00 | 1.05 | 0.03 | 74 | 1015.2 |
| 20260505203855 | 63 | 270 | 0.0 | 3.0 | 0.00 | 1.05 | 0.03 | 76 | 1015.2 |
| 20260505203407 | 62 | 266 | 2.0 | 6.0 | 0.00 | 1.05 | 0.03 | 77 | 1015.3 |
| 20260505202836 | 62 | 236 | 2.0 | 6.0 | 0.00 | 1.05 | 0.03 | 75 | 1015.3 |
| 20260505202350 | 62 | 252 | 2.0 | 5.0 | 0.00 | 1.05 | 0.03 | 75 | 1015.3 |
| 20260505201842 | 62 | 119 | 2.0 | 4.0 | 0.00 | 1.05 | 0.03 | 74 | 1015.3 |
| 20260505201334 | 63 | 146 | 1.0 | 4.0 | 0.00 | 1.05 | 0.03 | 73 | 1015.4 |
| 20260505200848 | 63 | 145 | 1.0 | 4.0 | 0.00 | 1.05 | 0.03 | 75 | 1015.4 |
| 20260505200409 | 63 | 148 | 0.0 | 4.0 | 0.00 | 1.05 | 0.03 | 75 | 1015.4 |
| 20260505195839 | 62 | 179 | 1.0 | 4.0 | 0.00 | 1.06 | 0.03 | 74 | 1015.4 |
| 20260505195332 | 63 | 143 | 1.0 | 3.0 | 0.00 | 1.06 | 0.03 | 73 | 1015.5 |
| 20260505194844 | 62 | 153 | 0.0 | 3.0 | 0.00 | 1.06 | 0.03 | 75 | 1015.5 |
| 20260505194338 | 62 | 128 | 2.0 | 5.0 | 0.00 | 1.06 | 0.03 | 75 | 1015.5 |
| 20260505193850 | 62 | 133 | 2.0 | 6.0 | 0.00 | 1.06 | 0.03 | 78 | 1015.5 |
| 20260505193403 | 62 | 119 | 2.0 | 6.0 | 0.00 | 1.06 | 0.03 | 78 | 1015.5 |
| 20260505192832 | 62 | 102 | 0.0 | 4.0 | 0.00 | 1.06 | 0.03 | 77 | 1015.5 |
| 20260505192345 | 61 | 115 | 1.0 | 4.0 | 0.00 | 1.06 | 0.03 | 77 | 1015.6 |
| 20260505191837 | 62 | 146 | 1.0 | 4.0 | 0.00 | 1.06 | 0.03 | 78 | 1015.5 |
| 20260505191351 | 61 | 133 | 1.0 | 5.0 | 0.00 | 1.06 | 0.03 | 79 | 1015.5 |
| 20260505190846 | 61 | 120 | 3.0 | 5.0 | 0.00 | 1.06 | 0.03 | 77 | 1015.6 |
| 20260505190353 | 61 | 131 | 1.0 | 3.0 | 0.00 | 1.06 | 0.03 | 79 | 1015.5 |
| 20260505185844 | 61 | 228 | 0.0 | 0.0 | 0.00 | 1.06 | 0.03 | 80 | 1015.5 |
| 20260505185338 | 60 | 229 | 0.0 | 3.0 | 0.00 | 1.06 | 0.03 | 80 | 1015.5 |
| 20260505184850 | 60 | 230 | 1.0 | 4.0 | 0.00 | 1.06 | 0.03 | 80 | 1015.5 |
| 20260505184344 | 60 | 237 | 1.0 | 4.0 | 0.00 | 1.06 | 0.03 | 80 | 1015.5 |
| 20260505183839 | 60 | 179 | 1.0 | 4.0 | 0.00 | 1.06 | 0.03 | 81 | 1015.5 |
| 20260505183346 | 60 | 89 | 2.0 | 4.0 | 0.00 | 1.06 | 0.03 | 81 | 1015.5 |
| 20260505182857 | 60 | 109 | 1.0 | 2.0 | 0.00 | 1.06 | 0.03 | 81 | 1015.4 |
| 20260505182409 | 60 | 116 | 0.0 | 2.0 | 0.00 | 1.06 | 0.03 | 84 | 1015.4 |
| 20260505181840 | 59 | 83 | 1.0 | 2.0 | 0.00 | 1.06 | 0.03 | 83 | 1015.4 |
| 20260505181333 | 59 | 56 | 0.0 | 2.0 | 0.00 | 1.06 | 0.03 | 85 | 1015.4 |
| 20260505180847 | 59 | 245 | 0.0 | 2.0 | 0.00 | 1.06 | 0.03 | 85 | 1015.5 |
| 20260505180348 | 58 | 134 | 0.0 | 1.0 | 0.00 | 1.06 | 0.03 | 85 | 1015.4 |
| 20260505175834 | 58 | 155 | 0.0 | 3.0 | 0.00 | 1.09 | 0.03 | 86 | 1015.4 |
| 20260505175347 | 58 | 260 | 1.0 | 3.0 | 0.00 | 1.09 | 0.03 | 86 | 1015.3 |
| 20260505174839 | 57 | 251 | 0.0 | 3.0 | 0.00 | 1.09 | 0.03 | 86 | 1015.3 |
| 20260505174337 | 58 | 146 | 0.0 | 2.0 | 0.00 | 1.09 | 0.03 | 87 | 1015.3 |
| 20260505173907 | 58 | 228 | 0.0 | 3.0 | 0.00 | 1.09 | 0.03 | 88 | 1015.2 |
| 20260505173339 | 57 | 134 | 1.0 | 3.0 | 0.00 | 1.09 | 0.03 | 87 | 1015.1 |
| 20260505172833 | 57 | 160 | 0.0 | 3.0 | 0.00 | 1.09 | 0.03 | 87 | 1015.2 |
| 20260505172344 | 57 | 130 | 1.0 | 3.0 | 0.00 | 1.09 | 0.03 | 88 | 1015.2 |
| 20260505171833 | 57 | 135 | 0.0 | 3.0 | 0.00 | 1.09 | 0.03 | 88 | 1015.2 |
| 20260505171347 | 56 | 121 | 1.0 | 3.0 | 0.00 | 1.09 | 0.03 | 88 | 1015.3 |
| 20260505170901 | 56 | 139 | 0.0 | 3.0 | 0.00 | 1.09 | 0.03 | 90 | 1015.3 |
| 20260505170337 | 56 | 120 | 1.0 | 3.0 | 0.00 | 1.09 | 0.03 | 89 | 1015.2 |
| 20260505165848 | 56 | 109 | 1.0 | 3.0 | 0.00 | 1.09 | 0.03 | 91 | 1015.2 |
| 20260505165346 | 56 | 135 | 1.0 | 3.0 | 0.00 | 1.09 | 0.03 | 91 | 1015.2 |
| 20260505164835 | 56 | 108 | 2.0 | 4.0 | 0.00 | 1.09 | 0.03 | 91 | 1015.1 |
| 20260505164406 | 56 | 98 | 1.0 | 4.0 | 0.00 | 1.09 | 0.03 | 91 | 1015.1 |
| 20260505163842 | 56 | 141 | 2.0 | 4.0 | 0.00 | 1.09 | 0.03 | 91 | 1015.1 |
| 20260505163411 | 55 | 117 | 0.0 | 4.0 | 0.00 | 1.09 | 0.03 | 92 | 1015.2 |
| 20260505162841 | 55 | 131 | 1.0 | 4.0 | 0.00 | 1.09 | 0.03 | 93 | 1015.1 |
| 20260505162338 | 55 | 104 | 1.0 | 4.0 | 0.00 | 1.09 | 0.03 | 93 | 1015.1 |
| 20260505161846 | 55 | 123 | 1.0 | 4.0 | 0.00 | 1.09 | 0.03 | 93 | 1015.0 |
| 20260505161358 | 55 | 134 | 1.0 | 3.0 | 0.00 | 1.09 | 0.03 | 94 | 1015.1 |
| 20260505160834 | 55 | 113 | 1.0 | 4.0 | 0.00 | 1.09 | 0.03 | 94 | 1015.1 |
| 20260505160353 | 54 | 86 | 1.0 | 4.0 | 0.00 | 1.09 | 0.03 | 94 | 1015.1 |
| 20260505153346 | 54 | 136 | 0.0 | 4.0 | 0.00 | 1.09 | 0.03 | 95 | 1015.0 |
| 20260505152841 | 53 | 115 | 2.0 | 4.0 | 0.00 | 1.09 | 0.03 | 95 | 1015.1 |
| 20260505152354 | 53 | 129 | 0.0 | 2.0 | 0.00 | 1.09 | 0.03 | 95 | 1015.0 |
| 20260505151841 | 53 | 127 | 0.0 | 3.0 | 0.00 | 1.09 | 0.03 | 95 | 1014.9 |
| 20260505151339 | 53 | 172 | 0.0 | 3.0 | 0.00 | 1.09 | 0.03 | 95 | 1015.0 |
| 20260505150832 | 53 | 74 | 0.0 | 3.0 | 0.00 | 1.09 | 0.03 | 96 | 1014.9 |
| 20260505150337 | 53 | 127 | 1.0 | 3.0 | 0.00 | 1.09 | 0.03 | 95 | 1014.8 |
| 20260505140335 | 53 | 139 | 2.0 | 5.0 | 0.00 | 1.09 | 0.03 | 96 | 1014.3 |
| 20260505124841 | 52 | 91 | 2.0 | 4.0 | 0.00 | 1.09 | 0.03 | 96 | 1014.1 |
| 20260505124339 | 52 | 132 | 1.0 | 5.0 | 0.00 | 1.09 | 0.03 | 96 | 1014.0 |
| 20260505123833 | 52 | 199 | 2.0 | 5.0 | 0.00 | 1.09 | 0.03 | 96 | 1014.0 |
| 20260505123345 | 52 | 120 | 1.0 | 4.0 | 0.00 | 1.09 | 0.03 | 96 | 1014.0 |
| 20260505122836 | 52 | 145 | 1.0 | 4.0 | 0.00 | 1.09 | 0.03 | 96 | 1014.0 |
| 20260505122350 | 52 | 141 | 1.0 | 5.0 | 0.00 | 1.09 | 0.03 | 96 | 1013.9 |
| 20260505121840 | 52 | 106 | 1.0 | 5.0 | 0.00 | 1.09 | 0.03 | 96 | 1013.8 |
| 20260505121354 | 52 | 171 | 1.0 | 3.0 | 0.00 | 1.09 | 0.03 | 96 | 1013.8 |
| 20260505120846 | 52 | 126 | 0.0 | 4.0 | 0.00 | 1.09 | 0.03 | 96 | 1013.9 |
| 20260505120349 | 52 | 139 | 2.0 | 4.0 | 0.00 | 1.09 | 0.03 | 96 | 1013.9 |
| 20260505115839 | 52 | 125 | 2.0 | 4.0 | 0.00 | 1.09 | 0.03 | 96 | 1014.1 |
| 20260505115332 | 52 | 135 | 1.0 | 3.0 | 0.00 | 1.09 | 0.03 | 96 | 1014.1 |
| 20260505114844 | 52 | 101 | 1.0 | 3.0 | 0.00 | 1.09 | 0.03 | 96 | 1014.1 |
| 20260505114336 | 52 | 121 | 0.0 | 3.0 | 0.00 | 1.09 | 0.03 | 96 | 1014.1 |
| 20260505113849 | 52 | 161 | 0.0 | 4.0 | 0.00 | 1.09 | 0.03 | 96 | 1014.2 |
| 20260505113342 | 52 | 129 | 1.0 | 5.0 | 0.00 | 1.09 | 0.03 | 96 | 1014.2 |
| 20260505112833 | 52 | 133 | 1.0 | 5.0 | 0.00 | 1.09 | 0.03 | 96 | 1014.3 |
| 20260505112347 | 52 | 131 | 2.0 | 5.0 | 0.00 | 1.09 | 0.03 | 96 | 1014.3 |
| 20260505111858 | 52 | 143 | 1.0 | 5.0 | 0.00 | 1.09 | 0.03 | 96 | 1014.2 |
| 20260505111352 | 52 | 114 | 1.0 | 5.0 | 0.00 | 1.09 | 0.03 | 96 | 1014.1 |
| 20260505110903 | 52 | 205 | 1.0 | 3.0 | 0.00 | 1.09 | 0.03 | 96 | 1014.0 |
| 20260505110351 | 52 | 165 | 0.0 | 4.0 | 0.00 | 1.09 | 0.03 | 96 | 1014.1 |
| 20260505101900 | 53 | 191 | 1.0 | 6.0 | 0.00 | 1.09 | 0.03 | 96 | 1014.0 |
| 20260505101333 | 53 | 75 | 2.0 | 6.0 | 0.00 | 1.09 | 0.03 | 96 | 1014.1 |
| 20260505100907 | 53 | 117 | 2.0 | 6.0 | 0.00 | 1.09 | 0.03 | 96 | 1014.1 |
| 20260505100400 | 53 | 155 | 1.0 | 5.0 | 0.00 | 1.09 | 0.03 | 96 | 1014.1 |
| 20260505095835 | 53 | 146 | 2.0 | 5.0 | 0.00 | 1.09 | 0.03 | 96 | 1014.1 |
| 20260505095347 | 53 | 144 | 2.0 | 3.0 | 0.00 | 1.09 | 0.03 | 96 | 1014.1 |
| 20260505094839 | 53 | 117 | 1.0 | 4.0 | 0.00 | 1.09 | 0.03 | 96 | 1014.1 |
| 20260505094409 | 53 | 124 | 2.0 | 4.0 | 0.00 | 1.09 | 0.03 | 96 | 1014.2 |
| 20260505093845 | 53 | 126 | 2.0 | 4.0 | 0.00 | 1.09 | 0.03 | 96 | 1014.3 |
| 20260505093337 | 53 | 136 | 1.0 | 3.0 | 0.00 | 1.09 | 0.03 | 96 | 1014.4 |
| 20260505092848 | 53 | 136 | 2.0 | 3.0 | 0.00 | 1.09 | 0.03 | 96 | 1014.5 |
| 20260505092341 | 53 | 167 | 0.0 | 2.0 | 0.00 | 1.09 | 0.03 | 96 | 1014.3 |
| 20260505091909 | 53 | 146 | 1.0 | 3.0 | 0.00 | 1.09 | 0.03 | 96 | 1014.4 |
| 20260505091346 | 53 | 139 | 0.0 | 3.0 | 0.00 | 1.09 | 0.03 | 96 | 1014.4 |